STARLINK-36614, 67622

Orbit data source: Space-Track

STARLINK-36614, 67622 is a payload satellite owned by SpaceX/Seattle (US) in LEO that was launched on Fri, 30 Jan 2026 UTC via an FALCON 9 launch vehicle from the Air Force Eastern Test Range (AFETR). Payload-class satellites include a variety of spacecraft equipped with specific instruments for various scientific and technological missions. These include communications satellites like Starlink; space stations such as the ISS; scientific satellites like the Hubble; Earth observation satellites from companies like Planet Labs, Umbra, and HawkEye 360; GPS; miniature CubeSats for education and research; and military/defense satellites.

Loading next visibility...
Identifier
67622, 2026-020F
Orbit
LEO
Country
Flag of USUS
Related business
Manufacturer
SpaceX/Seattle
Mission
Operational Commercial Communications
Bus & Motor
STARLINK V2MO, Unknown motor
Mass
575 kg wet, ~530 kg dry
Launch date (UTC)
2026-01-30 (5 months ago)
Launch vehicle
FALCON 9
Launch site
Air Force Eastern Test Range (AFETR)
Object type
Payload
Rocket body
Debris
Shape & HBR
Box + 2 Pan, 17.7 m
Radar Cross Section
36.964 m², Large (>1 m²)

Expand to show TLE details & history
Last TLE update: 12 hours ago

TLE from 12 hours ago
0 STARLINK-36614
1 67622U 26020F   26171.35273752  .00008746  00000-0  32689-3 0  9990
2 67622  43.0022 280.0809 0001374 275.0614  85.0081 15.27586104 21816
Epoch: 2026-06-20T08:27Z
TLE epoch observation values (Epoch: 2026-06-20T08:27:56.521Z)
Latitude
-0.00002°
Longitude
-115.47321°
Altitude
482.725 km
Speed
7.626 km/s
True Right ascension
18h 40m 19s
True Declination
0° 00' 00"
Sunlit
Object was in full shadow at epoch
Visualization orbit readout
Latitude
Unknown
Longitude
Unknown
Altitude
Unknown
Speed
Unknown
Apparent Right ascension
Unknown
Apparent Declination
Unknown
Sunlit
N/A
Visualization observer readout
Local Sidereal Time
07:21:21
Azimuth
Unknown
Elevation
Unknown
Doppler factor
Unknown
Orbital elements
Apogee altitude
485.919 km
Perigee altitude
484.033 km
Semi-major axis
6,863.113 km
Eccentricity
0.00014
Inclination
43.0022°
RAAN
280.0809°
Arg. of periapsis
275.0614°
True anomaly
85.02379°
Mean anomaly
85.0081°
Eccentric anomaly
85.01594°
Mean motion
3.81735 °/min
Orbital period
94.31 mins
BSTAR
0.00032689
Loading maneuver chart data...
Computing Atmospheric mass density...
Loading historical data...
Loading historical data...
Loading historical data...
Loading historical data...
Loading historical data...
Loading historical data...
Loading historical data...

Documentation

Showing up to 5 results
|